Time,TemperatureF,DewpointF,PressureIn,WindDirection,WindDirectionDegrees,WindSpeedMPH,WindSpeedGustMPH,Humidity,HourlyPrecipIn,Conditions,Clouds,dailyrainin,SoftwareType,DateUTC
2013-09-12 00:13:00,75.0,65.0,30.03,SE,125,0.0,0.0,71,0.00,,,0.00,,2013-09-12 05:13:00,
2013-09-12 00:23:00,75.0,65.0,30.03,SE,125,0.0,0.0,70,0.00,,,0.00,,2013-09-12 05:23:00,
2013-09-12 00:43:00,75.0,65.0,30.04,SE,125,0.0,0.0,71,0.00,,,0.00,,2013-09-12 05:43:00,
2013-09-12 00:52:00,75.0,65.0,30.03,SE,125,0.0,0.0,70,0.00,,,0.00,,2013-09-12 05:52:00,
2013-09-12 01:12:00,75.0,65.0,30.03,SE,125,0.0,0.0,71,0.00,,,0.00,,2013-09-12 06:12:00,
2013-09-12 01:21:00,75.0,65.0,30.03,SE,125,0.0,0.0,71,0.00,,,0.00,,2013-09-12 06:21:00,
2013-09-12 01:42:00,75.0,65.0,30.03,SE,124,0.0,0.0,70,0.00,,,0.00,,2013-09-12 06:42:00,
2013-09-12 01:52:00,75.0,65.0,30.03,SE,124,0.0,0.0,71,0.00,,,0.00,,2013-09-12 06:52:00,
2013-09-12 02:12:00,75.0,66.0,30.03,SE,124,0.0,0.0,73,0.00,,,0.00,,2013-09-12 07:12:00,
2013-09-12 02:22:00,74.0,65.0,30.03,SE,124,0.0,0.0,74,0.00,,,0.00,,2013-09-12 07:22:00,
2013-09-12 02:43:00,74.0,65.0,30.03,SE,126,0.0,0.0,74,0.00,,,0.00,,2013-09-12 07:43:00,
2013-09-12 02:52:00,74.0,65.0,30.03,SE,126,0.0,1.0,74,0.00,,,0.00,,2013-09-12 07:52:00,
2013-09-12 03:11:00,73.0,65.0,30.03,SE,126,0.0,1.0,75,0.00,,,0.00,,2013-09-12 08:11:00,
2013-09-12 03:22:00,74.0,66.0,30.03,SE,126,0.0,1.0,76,0.00,,,0.00,,2013-09-12 08:22:00,
2013-09-12 03:52:00,73.0,66.0,30.04,SE,126,0.0,0.0,78,0.00,,,0.00,,2013-09-12 08:52:00,
2013-09-12 04:12:00,72.0,65.0,30.03,SE,126,0.0,0.0,79,0.00,,,0.00,,2013-09-12 09:12:00,
2013-09-12 04:21:00,72.0,65.0,30.03,SE,126,0.0,0.0,80,0.00,,,0.00,,2013-09-12 09:21:00,
2013-09-12 04:53:00,71.0,65.0,30.03,SE,126,0.0,0.0,82,0.00,,,0.00,,2013-09-12 09:53:00,
2013-09-12 05:12:00,71.0,65.0,30.03,SE,126,0.0,1.0,82,0.00,,,0.00,,2013-09-12 10:12:00,
2013-09-12 05:23:00,71.0,65.0,30.03,SE,126,0.0,0.0,82,0.00,,,0.00,,2013-09-12 10:23:00,
2013-09-12 05:53:00,70.0,65.0,30.03,SE,126,0.0,0.0,84,0.00,,,0.00,,2013-09-12 10:53:00,
2013-09-12 06:11:00,70.0,66.0,30.03,SE,126,0.0,0.0,86,0.00,,,0.00,,2013-09-12 11:11:00,
2013-09-12 06:22:00,70.0,66.0,30.03,SE,126,0.0,1.0,86,0.00,,,0.00,,2013-09-12 11:22:00,
2013-09-12 06:52:00,71.0,66.0,30.04,SE,126,0.0,0.0,84,0.00,,,0.00,,2013-09-12 11:52:00,
2013-09-12 07:12:00,71.0,66.0,30.05,SE,126,0.0,0.0,85,0.00,,,0.00,,2013-09-12 12:12:00,
2013-09-12 07:22:00,70.0,65.0,30.04,SE,126,0.0,1.0,85,0.00,,,0.00,,2013-09-12 12:22:00,
2013-09-12 07:42:00,70.0,65.0,30.05,SE,126,0.0,0.0,85,0.00,,,0.00,,2013-09-12 12:42:00,
2013-09-12 07:52:00,70.0,66.0,30.05,SE,126,0.0,1.0,86,0.00,,,0.00,,2013-09-12 12:52:00,
2013-09-12 08:11:00,71.0,66.0,30.05,SE,126,0.0,0.0,85,0.00,,,0.00,,2013-09-12 13:11:00,
2013-09-12 08:22:00,72.0,67.0,30.06,ESE,104,0.0,1.0,83,0.00,,,0.00,,2013-09-12 13:22:00,
2013-09-12 08:52:00,76.0,68.0,30.06,SE,140,0.0,1.0,76,0.00,,,0.00,,2013-09-12 13:52:00,
2013-09-12 09:22:00,79.0,68.0,30.06,SE,128,0.0,1.0,70,0.00,,,0.00,,2013-09-12 14:22:00,
2013-09-12 09:32:00,79.0,68.0,30.06,SE,128,0.0,1.0,70,0.00,,,0.00,,2013-09-12 14:32:00,
2013-09-12 09:52:00,82.0,69.0,30.06,ESE,117,0.0,2.0,65,0.00,,,0.00,,2013-09-12 14:52:00,
2013-09-12 10:11:00,83.0,69.0,30.06,SW,231,0.0,1.0,63,0.00,,,0.00,,2013-09-12 15:11:00,
2013-09-12 10:22:00,84.0,69.0,30.06,North,1,0.0,1.0,60,0.00,,,0.00,,2013-09-12 15:22:00,
2013-09-12 10:43:00,86.0,68.0,30.06,SE,145,0.0,2.0,56,0.00,,,0.00,,2013-09-12 15:43:00,
2013-09-12 10:53:00,87.0,68.0,30.07,East,80,0.0,2.0,53,0.00,,,0.00,,2013-09-12 15:53:00,
2013-09-12 11:13:00,87.0,67.0,30.06,NW,306,0.0,2.0,52,0.00,,,0.00,,2013-09-12 16:13:00,
2013-09-12 11:23:00,88.0,66.0,30.06,East,96,0.0,2.0,49,0.00,,,0.00,,2013-09-12 16:23:00,
2013-09-12 11:43:00,90.0,69.0,30.06,SE,124,0.0,2.0,50,0.00,,,0.00,,2013-09-12 16:43:00,
2013-09-12 11:53:00,91.0,68.0,30.06,North,350,0.0,3.0,47,0.00,,,0.00,,2013-09-12 16:53:00,
2013-09-12 12:12:00,92.0,67.0,30.06,SE,136,1.0,2.0,44,0.00,,,0.00,,2013-09-12 17:12:00,
2013-09-12 12:23:00,93.0,66.0,30.05,West,277,0.0,2.0,42,0.00,,,0.00,,2013-09-12 17:23:00,
2013-09-12 12:42:00,94.0,67.0,30.04,ESE,110,0.0,3.0,41,0.00,,,0.00,,2013-09-12 17:42:00,
2013-09-12 12:53:00,93.0,65.0,30.04,North,8,2.0,6.0,40,0.00,,,0.00,,2013-09-12 17:53:00,
2013-09-12 13:12:00,93.0,65.0,30.03,ENE,70,3.0,8.0,40,0.00,,,0.00,,2013-09-12 18:12:00,
2013-09-12 13:22:00,93.0,66.0,30.03,ESE,116,0.0,2.0,41,0.00,,,0.00,,2013-09-12 18:22:00,
2013-09-12 13:42:00,95.0,65.0,30.02,East,92,2.0,5.0,37,0.00,,,0.00,,2013-09-12 18:42:00,
2013-09-12 13:52:00,95.0,65.0,30.02,NE,44,2.0,7.0,38,0.00,,,0.00,,2013-09-12 18:52:00,
2013-09-12 14:12:00,93.0,64.0,30.01,ENE,72,3.0,8.0,38,0.00,,,0.00,,2013-09-12 19:12:00,
2013-09-12 14:22:00,92.0,63.0,30.01,East,88,3.0,6.0,39,0.00,,,0.00,,2013-09-12 19:22:00,
2013-09-12 14:52:00,94.0,64.0,29.99,ENE,78,2.0,6.0,37,0.00,,,0.00,,2013-09-12 19:52:00,
2013-09-12 15:11:00,95.0,65.0,29.98,SE,139,0.0,4.0,37,0.00,,,0.00,,2013-09-12 20:11:00,
2013-09-12 15:22:00,95.0,63.0,29.97,East,96,2.0,4.0,35,0.00,,,0.00,,2013-09-12 20:22:00,
2013-09-12 15:42:00,94.0,64.0,29.97,ESE,103,2.0,5.0,37,0.00,,,0.00,,2013-09-12 20:42:00,
2013-09-12 15:52:00,94.0,64.0,29.96,WSW,238,0.0,4.0,38,0.00,,,0.00,,2013-09-12 20:52:00,
2013-09-12 16:22:00,89.0,65.0,29.96,NE,45,5.0,13.0,46,0.00,,,0.00,,2013-09-12 21:22:00,
2013-09-12 16:54:00,90.0,66.0,29.96,North,11,4.0,11.0,45,0.00,,,0.00,,2013-09-12 21:54:00,
2013-09-12 17:13:00,90.0,64.0,29.95,NNE,27,6.0,10.0,43,0.00,,,0.00,,2013-09-12 22:13:00,
2013-09-12 17:24:00,90.0,64.0,29.95,NNE,27,6.0,10.0,43,0.00,,,0.00,,2013-09-12 22:24:00,
2013-09-12 17:43:00,89.0,64.0,29.94,NNW,334,3.0,7.0,43,0.00,,,0.00,,2013-09-12 22:43:00,
2013-09-12 17:54:00,90.0,64.0,29.94,East,94,1.0,7.0,43,0.00,,,0.00,,2013-09-12 22:54:00,
2013-09-12 18:12:00,90.0,63.0,29.94,ENE,60,3.0,8.0,41,0.00,,,0.00,,2013-09-12 23:12:00,
2013-09-12 18:23:00,88.0,65.0,29.94,ENE,63,3.0,13.0,47,0.00,,,0.00,,2013-09-12 23:23:00,
2013-09-12 18:42:00,87.0,65.0,29.94,NE,34,4.0,8.0,49,0.00,,,0.00,,2013-09-12 23:42:00,
2013-09-12 18:52:00,88.0,67.0,29.94,NNE,15,2.0,9.0,50,0.00,,,0.00,,2013-09-12 23:52:00,
2013-09-12 19:11:00,87.0,67.0,29.95,NE,41,5.0,9.0,51,0.00,,,0.00,,2013-09-13 00:11:00,
2013-09-12 19:22:00,87.0,66.0,29.95,ESE,115,3.0,9.0,50,0.00,,,0.00,,2013-09-13 00:22:00,
2013-09-12 19:42:00,86.0,65.0,29.95,East,92,3.0,8.0,49,0.00,,,0.00,,2013-09-13 00:42:00,
2013-09-12 19:52:00,85.0,65.0,29.95,NNE,32,2.0,7.0,51,0.00,,,0.00,,2013-09-13 00:52:00,
2013-09-12 20:11:00,85.0,65.0,29.96,ENE,68,2.0,7.0,52,0.00,,,0.00,,2013-09-13 01:11:00,
2013-09-12 20:22:00,84.0,65.0,29.96,East,97,2.0,7.0,53,0.00,,,0.00,,2013-09-13 01:22:00,
2013-09-12 20:42:00,84.0,66.0,29.96,East,93,2.0,8.0,54,0.00,,,0.00,,2013-09-13 01:42:00,
2013-09-12 20:52:00,84.0,66.0,29.97,ENE,75,2.0,9.0,54,0.00,,,0.00,,2013-09-13 01:52:00,
2013-09-12 21:12:00,84.0,66.0,29.97,ENE,68,2.0,9.0,54,0.00,,,0.00,,2013-09-13 02:12:00,
2013-09-12 21:22:00,84.0,66.0,29.97,ENE,77,1.0,7.0,55,0.00,,,0.00,,2013-09-13 02:22:00,
2013-09-12 21:43:00,83.0,65.0,29.97,ENE,76,2.0,6.0,55,0.00,,,0.00,,2013-09-13 02:43:00,
2013-09-12 21:53:00,83.0,66.0,29.98,ESE,114,1.0,4.0,56,0.00,,,0.00,,2013-09-13 02:53:00,
2013-09-12 22:12:00,83.0,66.0,29.98,East,98,1.0,4.0,57,0.00,,,0.00,,2013-09-13 03:12:00,
2013-09-12 22:22:00,82.0,66.0,29.98,ENE,75,1.0,5.0,58,0.00,,,0.00,,2013-09-13 03:22:00,
2013-09-12 22:55:00,82.0,66.0,29.98,East,94,1.0,3.0,58,0.00,,,0.00,,2013-09-13 03:55:00,
2013-09-12 23:14:00,82.0,66.0,29.98,ENE,72,0.0,3.0,59,0.00,,,0.00,,2013-09-13 04:14:00,
2013-09-12 23:24:00,81.0,66.0,29.99,ENE,67,1.0,4.0,61,0.00,,,0.00,,2013-09-13 04:24:00,
2013-09-12 23:54:00,79.0,66.0,29.98,East,79,0.0,3.0,64,0.00,,,0.00,,2013-09-13 04:54:00,